Flag for Germany Past Weather in Leinfelden-Echterdingen, Baden-Württemberg, Germany — Yesterday and Last 2 Weeks

Now
59 °F

Sprinkles. Passing clouds.


Feels Like: 58 °F
Forecast: 50 / 65 °F
Wind: 6 mph from Northwest

Location: Stuttgart-Echterdingen

Current Time: Sep 26, 2016 at 7:27:12 AM

Latest Report: Sep 26, 2016 at 6:50 AM


Visibility: 5 mi

Pressure: 30.18 "Hg

Humidity: 94%

Dew Point: 57 °F

Location of Leinfelden-EchterdingenLocation

Past Weather in Leinfelden-Echterdingen — Graph

°F

Leinfelden-Echterdingen Temperature Yesterday

Maximum temperature yesterday: 73 °F (at 2:20 PM)
Minimum temperature yesterday: 45 °F (at 6:50 AM)
Average temperature yesterday: 60 °F

High & Low Weather Summary for the Past Weeks

 TemperatureHumidityPressure
High88 °F (Sep 12, 4:50 PM)100% (Sep 13, 5:50 AM)30.33 "Hg (Sep 13, 5:50 AM)
Low41 °F (Sep 22, 5:50 AM)29% (Sep 13, 3:50 PM)29.83 "Hg (Sep 15, 3:20 AM)
Average62 °F73%30.06 "Hg
* Reported Sep 11 6:20 AM — Sep 26 6:20 AM, Leinfelden-Echterdingen, Weather by CustomWeather, © 2016

Note: Actual official high and low records may vary slightly from our data, if they occured in-between our weather recording intervals... More about our weather records

Advertising

Leinfelden-Echterdingen Weather History for the Previous 24 Hours

Scroll right to see more
 ConditionsComfort  
Time TempWeatherWind HumidityBarometerVisibility
6:20 AM
Mon, Sep 26
59 °FSprinkles. Passing clouds.6 mph88%30.18 "HgN/A
5:50 AM59 °FPassing clouds.2 mph88%30.18 "HgN/A
5:20 AM59 °FPartly cloudy.5 mph88%30.15 "HgN/A
4:50 AM61 °FSprinkles. Partly cloudy.6 mph83%30.15 "HgN/A
4:20 AM61 °FPassing clouds.5 mph83%30.15 "HgN/A
3:50 AM59 °FClear.2 mph82%30.15 "Hg10 mi
3:20 AM59 °FClear.1 mph82%30.15 "Hg10 mi
2:50 AM59 °FClear.1 mph82%30.15 "Hg10 mi
2:20 AM59 °FClear.2 mph82%30.15 "Hg10 mi
1:50 AM59 °FClear.2 mph82%30.15 "Hg10 mi
1:20 AM57 °FPassing clouds.3 mph88%30.15 "HgN/A
12:50 AM57 °FClear.2 mph88%30.15 "Hg10 mi
12:20 AM57 °FClear.2 mph88%30.15 "Hg10 mi
11:50 PM
Sun, Sep 25
59 °FClear.1 mph82%30.15 "Hg10 mi
11:20 PM59 °FClear.1 mph82%30.15 "Hg10 mi
10:50 PM59 °FClear.2 mph82%30.15 "Hg10 mi
10:20 PM61 °FClear.2 mph77%30.15 "Hg10 mi
9:50 PM63 °FClear.1 mph73%30.12 "Hg10 mi
9:20 PM64 °FPassing clouds.3 mph68%30.12 "HgN/A
8:50 PM64 °FClear.2 mph68%30.12 "Hg10 mi
8:20 PM64 °FClear.5 mph68%30.12 "Hg10 mi
7:50 PM66 °FClear.2 mph60%30.12 "Hg10 mi
7:20 PM68 °FClear.2 mph56%30.12 "Hg10 mi
6:50 PM70 °FSunny.2 mph53%30.12 "Hg10 mi
6:20 PM73 °FPassing clouds.3 mph44%30.09 "HgN/A
5:50 PM73 °FPassing clouds.5 mph47%30.09 "HgN/A
5:20 PM73 °FPassing clouds.3 mph44%30.09 "HgN/A
4:50 PM73 °FPassing clouds.5 mph41%30.09 "HgN/A
4:20 PM73 °FPassing clouds.3 mph47%30.09 "HgN/A
3:50 PM73 °FPassing clouds.3 mph44%30.09 "HgN/A
3:20 PM73 °FSunny.2 mph47%30.09 "Hg10 mi
2:50 PM73 °FPassing clouds.5 mph47%30.12 "HgN/A
2:20 PM73 °FPassing clouds.5 mph47%30.12 "HgN/A
1:50 PM72 °FPassing clouds.3 mph50%30.12 "HgN/A
1:20 PM70 °FPassing clouds.2 mph50%30.12 "HgN/A
12:50 PM70 °FPassing clouds.3 mph57%30.12 "HgN/A
12:20 PM70 °FPassing clouds.3 mph57%30.12 "HgN/A
11:50 AM66 °FPassing clouds.5 mph68%30.15 "HgN/A
11:20 AM64 °FSunny.3 mph73%30.15 "Hg10 mi
10:50 AM63 °FSunny.2 mph73%30.15 "Hg10 mi
10:20 AM61 °FSunny.2 mph77%30.15 "Hg10 mi
9:50 AM57 °FSunny.1 mph82%30.15 "Hg10 mi
9:20 AM55 °FSunny.2 mph88%30.18 "Hg10 mi
8:50 AM52 °FSunny.No wind88%30.18 "Hg10 mi
8:20 AM48 °FSunny.1 mph94%30.15 "Hg10 mi
7:50 AM45 °FFog.1 mph100%30.15 "HgN/A
7:20 AM45 °FFog.1 mph100%30.15 "HgN/A
Weather by CustomWeather, © 2016

See weather overviewHow to use our weather pages